Terminal Aerodrome Forecast
Issued by NWS

Home | Current Version | Previous Version | Text Only | Print | Product List | Glossary On
Versions: 1 2 3 4 5 6 7 8 9 10 11 12 13 14 15 16 17 18 19 20 21
077
FTUS46 KSEW 290159 AAA
TAFCLM
TAF AMD
KCLM 290159Z 2902/2924 32005KT P6SM VCSH SCT006 SCT025 OVC060
      TEMPO 2902/2904 -SHRA OVC006
     FM290600 28006KT P6SM OVC025
     FM291800 32012KT P6SM SCT030 BKN050
     FM292100 30012G20KT P6SM SCT050=

USA.gov is the U.S. government's official web portal to all federal, state and local government web resources and services.